EHI
0 0 0 0 0 0 0 0 0 0 0 0 0 0 0 0 0 0 0 0 0 1 2 3 3 3 3 3 3 3 3 3 3 3 3 3 3 2 2 3 2 1 0 0 0 0 0 0 0
0 0 0 0 0 0 0 0 0 0 0 0 0 0 0 0 0 0 0 0 0 1 2 3 3 3 3 3 3 3 3 3 3 3 3 3 2 1 1 2 2 1 0 0 0 0 0 0 0
0 0 0 0 0 0 0 0 0 0 0 0 0 0 0 0 0 0 0 0 0 1 2 3 3 3 3 3 3 3 3 3 3 3 3 3 1 0 0 2 2 1 0 0 0 0 0 0 0
0 0 0 0 0 0 0 0 0 0 0 0 0 0 0 0 0 0 0 0 0 0 1 3 3 3 3 3 3 3 3 3 3 3 3 2 1 0 0 2 2 1 0 0 0 0 0 0 0
0 0 0 0 0 0 0 0 0 0 0 0 0 0 0 0 0 0 0 0 0 0 1 2 3 3 3 3 3 3 4 4 3 3 3 3 1 1 1 2 2 1 0 0 0 0 0 0 0
0 0 0 0 0 0 0 0 0 0 0 0 0 0 0 0 0 0 0 0 0 0 0 1 2 3 3 3 3 4 4 4 4 3 3 3 3 2 2 3 2 1 0 0 0 0 0 0 0
0 0 0 0 0 0 0 0 0 0 0 0 0 0 0 0 0 0 0 0 0 0 0 0 1 2 3 3 3 3 4 4 3 3 3 3 3 3 3 3 2 1 0 0 0 0 0 0 0
0 0 0 0 0 0 0 0 0 0 0 0 0 0 0 0 0 0 0 0 0 0 0 0 0 1 1 2 3 3 3 3 3 3 3 3 3 3 3 2 2 1 0 0 0 0 0 0 0
0 0 0 0 0 0 0 0 0 0 0 0 0 0 0 0 0 0 0 0 0 0 0 0 0 0 0 1 2 3 3 3 3 3 3 2 3 3 2 1 1 1 0 0 0 0 0 0 0
0 0 0 0 0 0 0 0 0 0 0 0 0 0 0 0 0 0 0 0 0 0 0 0 0 0 0 0 1 2 3 3 3 3 2 2 2 3 2 1 0 0 0 0 0 0 0 0 0
0 0 0 0 0 0 0 0 0 0 0 0 0 0 0 0 0 0 0 0 0 0 0 0 0 0 0 0 0 1 2 2 2 2 1 1 1 2 2 2 1 0 0 0 0 0 0 0 0
0 0 0 0 0 0 0 0 0 0 0 0 0 0 0 0 0 0 0 0 0 0 0 0 0 0 0 0 0 0 1 1 1 1 0 0 0 1 2 2 1 0 0 0 0 0 0 0 0
0 0 0 0 0 0 0 0 0 0 0 0 0 0 0 0 0 0 0 0 0 0 0 0 0 0 0 0 0 0 0 0 0 0 0 0 0 0 1 1 1 0 0 0 0 0 0 0 0
0 0 0 0 0 0 0 0 0 0 0 0 0 0 0 0 0 0 0 0 0 0 0 0 0 0 0 0 0 0 0 0 0 0 0 0 0 0 0 0 0 0 0 0 0 0 0 0 0
0 0 0 0 0 0 0 0 0 0 0 0 0 0 0 0 0 0 0 0 0 0 0 0 0 0 0 0 0 0 0 0 0 0 0 0 0 0 0 0 0 0 0 0 0 0 0 0 0
0 0 0 0 0 0 0 0 0 0 0 0 0 0 0 0 0 0 0 0 0 0 0 0 0 0 0 0 0 0 0 0 0 0 0 0 0 0 0 0 0 0 0 0 0 0 0 0 0
0 0 0 0 0 0 0 0 0 0 0 0 0 0 0 0 0 0 0 0 0 0 0 0 0 0 0 0 0 0 0 0 0 0 0 0 0 0 0 0 0 0 0 0 0 0 0 0 0
0 0 0 0 0 0 0 0 0 0 0 0 0 0 0 0 0 0 0 0 0 0 0 0 0 0 0 0 0 0 0 0 0 0 0 0 0 0 0 0 0 0 0 0 0 0 0 0 0
0 0 0 0 0 0 0 0 0 0 0 0 0 0 0 0 0 0 0 0 0 0 0 0 0 0 0 0 0 0 0 0 0 0 0 0 0 0 0 0 0 0 0 0 0 0 0 0 0
0 0 0 0 0 0 0 0 0 0 0 0 0 0 0 0 0 0 0 0 0 0 0 0 0 0 0 0 0 0 0 0 0 0 0 0 0 0 0 0 0 0 0 0 0 0 0 0 0
0 0 0 0 0 0 0 0 0 0 0 0 0 0 0 0 0 0 0 0 0 0 0 0 0 0 0 0 0 0 0 0 0 0 0 0 0 0 0 0 0 0 0 0 0 0 0 0 0
0 0 0 0 0 0 0 0 0 0 0 0 0 0 0 0 0 0 0 0 0 0 0 0 0 0 0 0 0 0 0 0 0 0 0 0 0 0 0 0 0 0 0 0 0 0 0 0 0
0 0 0 0 0 0 0 0 0 0 0 0 0 0 0 0 0 0 0 0 0 0 0 0 0 0 0 0 0 0 0 0 0 0 0 0 0 0 0 0 0 0 0 0 0 0 0 0 0
0 0 0 0 0 0 0 0 0 0 0 0 0 0 0 0 0 0 0 0 0 0 0 0 0 0 0 0 0 0 0 0 0 0 0 0 0 0 0 0 0 0 0 0 0 0 0 0 0
0 0 0 0 0 0 0 0 0 0 0 0 0 0 0 0 0 0 0 0 0 0 0 0 0 0 0 0 0 0 0 0 0 0 0 0 0 0 0 0 0 0 0 0 0 0 0 0 0
0 0 0 0 0 0 0 0 0 0 0 0 0 0 0 0 0 0 0 0 0 0 0 0 0 0 0 0 0 0 0 0 0 0 0 0 0 0 0 0 0 0 0 0 0 0 0 0 0
0 0 0 0 0 0 0 0 0 0 0 0 0 0 0 0 0 0 0 0 0 0 0 0 0 0 0 0 0 0 0 0 0 0 0 0 0 0 0 0 0 0 0 0 0 0 0 0 0
0 0 0 0 0 0 0 0 0 0 0 0 0 0 0 0 0 0 0 0 0 0 0 0 0 0 0 0 0 0 0 0 0 0 0 0 0 0 0 0 0 0 0 0 0 0 0 0 0
0 0 0 0 0 0 0 0 0 0 0 0 0 0 0 0 0 0 0 0 0 0 0 0 0 0 0 0 0 0 0 0 0 0 0 0 0 0 0 0 0 0 0 0 0 0 0 0 0
0 0 0 0 0 0 0 0 0 0 0 0 0 0 0 0 0 0 0 0 0 0 0 0 0 0 0 0 0 0 0 0 0 0 0 0 0 0 0 0 0 0 0 0 0 0 0 0 0
Wind_Speed
3 3 2 2 2 4 6 4 2 2 3 3 2 2 6 8 7 7 4 2 2 6 11 11 8 9 8 8 8 9 10 10 10 9 9 8 8 8 9 11 12 13 13 13 13 13 13 12 11
3 2 2 2 2 5 6 3 4 4 3 1 1 1 5 7 5 5 4 2 1 5 10 10 10 9 9 9 8 8 9 9 9 8 8 7 7 8 9 10 11 12 12 13 13 13 13 12 11
0 2 1 1 2 4 6 4 3 2 1 0 2 3 4 6 5 5 6 2 1 4 8 9 8 9 9 9 8 8 8 8 8 8 8 7 7 7 8 9 11 11 12 12 12 13 13 12 12
3 2 1 2 7 3 3 3 2 3 3 1 2 5 6 7 6 7 6 2 2 3 6 8 6 7 9 9 9 8 8 8 8 7 7 7 7 7 8 10 11 11 12 12 12 12 12 12 12
1 2 3 5 5 3 1 1 1 2 2 2 2 5 6 6 7 8 7 5 4 4 2 4 4 5 8 9 9 8 8 8 7 6 6 6 6 7 8 10 11 11 11 11 11 11 12 12 12
1 1 4 6 6 3 3 1 2 3 3 2 2 5 6 7 10 8 8 8 8 7 4 2 1 2 5 7 8 8 8 7 7 6 6 6 6 7 9 10 11 11 11 11 10 11 11 12 12
1 2 3 7 8 6 3 1 2 2 4 3 2 4 7 6 11 7 6 8 9 9 8 6 3 2 4 5 7 7 7 7 7 6 6 6 6 6 8 9 11 11 11 11 10 10 10 11 11
1 3 6 7 9 6 4 3 1 1 3 3 2 2 5 7 12 4 3 6 8 9 9 7 6 4 3 6 7 7 7 7 7 7 6 6 6 7 7 8 10 11 12 12 10 9 9 9 10
2 3 5 7 8 6 4 4 2 0 2 4 5 5 6 9 7 3 3 5 7 9 9 7 6 4 4 4 4 6 7 7 7 7 7 7 6 6 6 7 10 11 11 12 10 9 8 6 7
1 3 4 3 4 6 5 3 2 4 4 5 5 5 6 7 7 8 8 8 9 10 10 7 7 5 4 3 4 5 5 5 6 5 5 5 4 3 4 8 10 10 11 11 11 10 7 3 3
1 2 4 4 3 4 5 3 2 3 4 2 1 3 5 7 8 8 8 8 9 9 9 8 7 5 3 3 3 2 2 2 3 4 4 3 3 3 3 4 6 6 7 6 8 6 3 2 3
2 2 2 3 4 4 4 3 3 3 2 5 5 4 4 7 8 8 8 9 9 9 10 9 7 3 2 3 3 2 1 1 1 2 2 1 2 2 2 2 3 3 2 2 2 1 2 2 2
2 3 2 3 4 4 4 6 4 4 6 5 6 6 6 7 7 6 7 7 9 9 10 11 8 2 2 4 3 3 4 5 6 6 5 4 2 1 2 2 2 2 2 1 1 1 1 1 2
1 2 3 4 5 5 6 4 5 5 7 5 4 5 6 7 7 7 8 9 9 9 10 10 9 6 5 6 6 6 7 8 9 9 10 9 6 5 5 4 4 4 3 3 3 3 2 2 3
1 3 4 4 5 5 5 6 6 8 9 6 4 4 5 6 7 8 8 8 8 8 9 10 9 9 10 11 11 9 9 9 9 8 11 11 9 8 7 6 6 5 5 4 4 4 2 2 1
2 3 5 3 3 4 8 7 5 10 10 7 4 3 3 5 6 7 7 7 8 8 8 9 8 11 13 12 11 9 10 10 9 9 9 13 12 10 8 7 7 6 5 4 4 4 3 3 2
5 6 6 3 3 4 7 6 6 9 8 6 4 3 2 4 6 7 7 7 7 7 7 8 9 11 12 12 12 12 11 11 9 9 9 11 12 11 9 8 7 7 6 6 5 5 4 4 4
7 8 6 6 2 4 7 8 5 8 8 7 5 4 3 3 5 6 6 6 6 6 6 7 8 9 9 9 10 10 12 11 10 10 11 12 11 12 10 9 10 8 7 7 6 6 6 5 5
4 6 8 5 1 4 9 11 8 8 9 9 8 6 5 3 3 4 4 5 5 7 7 7 7 6 5 5 6 7 8 9 10 10 13 13 13 13 11 9 10 10 9 10 9 6 7 8 7
7 9 11 5 1 5 7 12 10 9 9 8 9 8 7 6 5 4 4 5 6 7 7 7 7 7 7 7 7 7 9 9 9 9 12 14 14 13 11 12 10 10 9 12 12 10 7 7 8
12 14 15 8 2 3 6 12 13 8 5 5 7 8 8 7 7 6 5 5 6 7 7 6 8 9 10 10 9 9 8 7 8 10 10 13 14 14 13 14 12 11 11 10 12 11 12 8 8
12 11 11 9 7 7 6 10 8 8 9 9 10 11 10 9 8 7 6 6 6 6 6 7 8 9 9 8 9 10 9 9 8 8 9 11 12 13 13 13 12 11 10 11 10 11 9 9 7
5 3 6 6 8 8 8 10 8 6 11 13 14 14 12 11 10 8 7 6 6 6 6 7 9 10 10 10 11 13 13 11 9 9 11 10 10 11 11 11 10 10 9 10 10 9 9 7 7
9 8 5 2 4 11 13 14 10 9 10 7 13 15 14 12 10 9 7 6 6 6 7 8 10 10 10 11 11 13 15 13 12 10 9 8 6 7 10 9 9 9 8 8 8 7 8 7 7
10 9 5 6 8 11 6 11 11 7 3 4 12 16 16 14 12 11 10 9 8 8 8 8 10 11 10 11 11 12 13 13 12 10 8 7 6 6 7 7 7 7 7 7 6 6 6 7 6
16 14 11 10 8 5 6 11 7 1 3 2 6 14 15 15 13 13 12 10 9 9 9 10 11 11 11 11 11 10 10 8 8 8 7 7 5 5 6 6 6 6 6 5 5 4 5 5 5
12 12 6 2 2 4 9 7 7 4 5 5 8 14 17 17 15 14 12 11 11 11 10 11 11 11 10 10 10 10 9 9 9 8 7 6 5 5 5 5 5 5 5 5 5 4 4 4 5
5 9 7 8 7 9 9 9 8 12 13 11 12 16 17 17 16 15 13 13 12 11 11 11 11 11 11 10 9 8 9 9 8 7 7 6 6 5 4 3 3 3 4 4 4 4 4 5 5
11 10 9 9 7 7 8 7 6 9 11 14 15 15 17 19 18 16 14 13 13 12 12 12 11 11 11 10 9 9 9 8 8 7 7 6 5 4 3 2 2 2 2 3 4 4 5 6 6
13 14 15 11 9 7 7 5 3 4 5 9 11 13 16 18 17 16 14 14 14 14 13 13 12 12 11 10 10 9 9 8 7 7 7 6 5 4 3 2 1 1 2 3 4 4 5 6 7
Wind_Direction
334 323 272 240 194 96 84 78 64 84 85 37 7 17 60 57 49 62 47 101 125 158 165 162 159 149 141 131 128 129 127 125 121 116 110 103 96 94 98 100 90 81 73 66 58 52 46 41 39
334 288 231 234 183 121 105 103 96 61 36 41 110 96 83 74 52 65 49 80 119 159 169 170 156 155 148 141 139 137 134 132 127 122 115 107 99 94 99 100 89 80 71 63 54 47 41 36 33
250 294 249 145 99 111 122 126 106 69 52 213 121 70 51 50 45 41 14 27 111 154 178 168 163 162 157 153 151 149 142 138 134 130 124 115 106 98 100 100 88 78 68 60 51 43 37 34 31
237 197 165 120 105 89 110 119 136 149 135 82 121 105 82 44 21 14 13 49 91 120 178 174 176 173 166 163 163 160 153 148 144 141 136 127 118 111 107 101 90 78 69 61 51 42 36 32 30
243 223 135 118 112 113 142 113 185 163 120 83 115 108 91 49 30 32 34 42 51 75 136 175 183 191 179 174 174 171 165 159 156 154 151 142 133 129 120 109 97 86 75 66 56 44 37 34 32
136 203 175 154 137 142 150 133 184 132 115 97 90 115 97 71 30 21 35 46 47 48 49 57 144 235 205 189 185 181 175 170 170 172 171 164 154 146 133 119 107 95 85 75 62 49 41 37 35
128 163 160 159 151 160 149 156 170 129 126 75 2 137 128 79 11 359 41 51 49 41 33 21 354 247 232 219 206 197 189 185 184 186 184 177 172 163 145 130 119 107 96 89 75 59 48 40 37
46 134 138 164 168 164 147 157 96 359 86 56 338 175 127 4 338 335 45 50 45 37 28 15 1 331 268 230 218 220 211 204 201 200 194 190 186 174 154 144 126 114 108 104 92 80 66 52 42
254 183 174 177 176 156 155 163 134 40 112 86 53 46 14 339 345 22 36 27 23 21 17 8 355 337 306 264 235 229 223 221 222 214 205 204 206 184 165 144 129 123 121 118 110 104 91 74 58
242 199 160 158 165 148 153 159 143 177 162 140 123 95 25 14 26 36 29 13 5 360 358 354 342 327 295 257 234 229 223 222 226 230 219 212 208 184 154 137 136 134 135 132 129 125 117 82 51
52 127 131 153 156 149 157 170 177 215 189 147 109 66 26 27 33 31 25 13 360 348 351 347 335 310 277 226 213 210 209 221 236 247 244 221 203 178 172 149 143 144 146 144 144 147 131 97 68
116 121 145 147 156 175 187 182 195 229 77 67 65 64 44 36 32 22 12 5 358 357 355 348 339 309 240 202 178 158 109 66 42 15 331 240 198 189 179 160 150 149 150 149 155 140 134 124 103
173 155 183 185 189 219 215 214 205 164 115 105 95 78 54 41 32 28 16 13 7 2 354 347 346 9 141 153 116 90 70 56 47 35 23 26 40 69 73 68 69 74 66 79 74 66 87 41 32
152 206 231 227 215 212 211 211 195 169 148 132 104 73 52 41 26 23 21 15 8 358 350 349 5 41 88 92 80 66 57 55 51 43 35 38 43 54 65 63 57 54 50 48 47 44 35 33 18
237 273 254 208 204 200 188 217 211 144 158 147 117 84 60 45 33 27 17 9 5 354 353 3 20 51 67 68 67 62 60 60 55 47 41 43 46 55 62 60 53 46 48 57 65 62 56 48 12
183 247 251 183 182 173 208 235 138 153 168 161 146 117 79 56 39 29 19 14 10 5 9 20 39 60 66 69 68 65 60 59 54 47 44 45 48 54 61 59 53 50 49 47 50 41 42 34 356
211 235 237 233 182 180 222 245 129 169 187 182 168 138 96 75 46 31 23 21 19 19 25 40 53 67 74 76 75 70 64 57 52 48 45 45 48 53 61 58 52 51 53 48 47 43 29 16 353
212 217 226 234 174 206 227 237 163 179 204 202 180 163 131 89 46 27 29 30 36 42 50 60 67 75 85 84 81 75 66 59 53 49 45 46 48 50 58 58 51 47 47 42 38 48 40 18 346
205 215 238 238 197 235 241 248 224 186 203 206 195 182 165 129 83 61 54 54 64 61 65 70 78 78 92 90 85 78 69 63 59 52 49 49 49 51 54 57 52 49 49 42 33 32 36 25 357
210 232 249 253 214 247 259 259 249 211 216 218 204 187 173 156 139 101 80 75 72 72 73 77 78 81 83 90 91 87 90 75 70 64 56 54 54 52 53 55 55 50 52 46 38 33 32 35 23
223 232 241 237 169 223 271 260 236 205 200 199 195 182 173 166 152 134 109 91 84 75 73 81 86 88 91 99 103 107 99 88 73 65 60 54 58 59 59 59 59 54 52 49 42 36 36 36 36
228 226 238 227 233 245 226 270 237 208 209 203 191 185 177 168 159 146 134 113 95 85 88 92 93 94 98 108 112 110 104 98 90 84 79 69 60 60 60 61 60 58 55 52 46 42 39 38 33
220 133 190 214 232 251 217 252 256 214 235 213 193 186 179 171 162 152 140 123 107 102 102 103 100 95 97 101 106 106 104 105 106 100 90 80 68 61 59 59 60 58 54 50 47 43 41 38 34
132 110 97 126 209 247 221 227 252 219 226 189 181 183 178 170 164 155 144 139 127 120 115 114 109 102 104 107 108 111 115 119 116 109 102 89 80 68 61 60 60 56 52 46 42 42 42 36 33
175 168 193 210 216 237 178 222 244 228 178 171 179 180 176 173 171 168 166 161 150 140 130 126 121 115 116 115 113 115 117 118 116 114 108 104 92 78 65 62 60 56 50 44 39 39 36 29 24
194 200 203 213 221 213 177 229 245 114 118 136 172 174 174 179 181 180 177 170 161 154 148 142 135 130 130 125 122 121 121 117 116 115 115 107 100 91 84 73 67 60 50 40 33 34 26 12 6
178 213 216 152 75 261 222 234 264 176 197 177 172 177 184 186 187 186 181 178 172 168 164 157 150 145 143 138 134 132 130 128 128 126 120 114 112 109 97 83 72 59 45 31 22 18 9 354 348
203 166 159 202 209 233 234 221 214 200 206 190 190 191 189 188 189 190 187 184 181 176 171 168 165 159 154 151 147 144 143 141 139 138 134 130 128 127 120 101 76 54 35 17 7 355 349 338 335
173 183 200 200 216 215 237 225 208 203 190 191 197 193 188 190 192 192 190 187 182 179 178 177 176 171 168 166 161 157 155 153 150 146 146 145 143 143 136 116 85 38 8 355 339 336 330 325 321
212 201 189 192 209 217 242 243 120 203 193 192 190 187 191 193 194 192 189 185 185 186 186 186 185 184 181 176 173 169 164 163 164 161 158 159 160 159 158 163 196 298 315 317 313 313 313 311 311